Location: Aciu?a
(46.2833°N, 22.4500°E)
Time: 06:07:04
(UTC+00:00)

Cosmos 1943 Rocket - Pass Details

Date: 25 October 2021
Orbit: 811 x 844 km, 71.0° (Epoch: 04 December)

Event Time Altitude Azimuth Distance (km) Brightness Sun altitude
Rises 18:24:31 0° 340° (NNW) 3,415 5.8 -31.2°
Reaches altitude 10° 18:27:43 10° 358° (N) 2,475 4.8 -31.7°
Enters shadow 18:28:53 14° 8° (N) 2,203 4.4 -31.9°
